Location: Unspecified
(40.7945°N, 111.1337°W)
Time: 15:38:30
(UTC-06:00)

CZ-3 Stage 3 - Pass Details

Date: 26 May 2019
Orbit: 499 x 34693 km, 30.5° (Epoch: 23 June)

Event Time Altitude Azimuth Distance (km) Brightness Sun altitude
Exits shadow 00:39:12 39° 199° (SSW) 2,598 4.7 -27.3°
Maximum altitude 00:42:49 51° 152° (SSE) 3,132 5.1 -27.5°
Drops below altitude 10° 08:39:49 10° 147° (SSE) 28,087 10.9 28.2°
Sets 09:23:08 0° 146° (SE) 22,278 10.4 36.4°
